[[[{"header":{"parameterUnit":"kt","parameterCategory":2,"dx":1,"dy":1,"la1":30.253999710083008,"la2":30.299108505249023,"lo1":-89.0895004272461,"lo2":-89.04439544677734,"nx":28,"ny":28,"refTime":"2022-10-31T21:00:00:Z","depth":0,"parameterNumber":1,"parameterNumberName":"U-component_of_WINDS"},"data":[-5.5011,-5.5095,-5.5046,-5.5122,-5.509,-5.5135,-5.5135,-5.5131,-5.5116,-5.5166,-5.5186,-5.5147,-5.5115,-5.5131,-5.5154,-5.5136,-5.5152,-5.5218,-5.5188,-5.493,-5.4891,-5.4854,-5.4831,-5.5221,-5.5221,-5.5465,-5.5467,-5.5469,-5.4831,-5.48,-5.4824,-5.4814,-5.4835,-5.4741,-5.4727,-5.4753,-5.4795,-5.4777,-5.4793,-5.4834,-5.486,-5.4804,-5.4823,-5.4866,-5.4825,-5.4875,-5.4874,-5.4872,-5.4592,-5.4568,-5.4908,-5.4908,-5.4908,-5.4908,-5.4908,-5.4908,-5.4491,-5.4543,-5.4507,-5.4532,-5.4513,-5.4508,-5.455,-5.4498,-5.4523,-5.4532,-5.4468,-5.4517,-5.4491,-5.4488,-5.4476,-5.4515,-5.4452,-5.4492,-5.4504,-5.4517,-5.454,-5.4205,-5.4515,-5.4514,-5.4513,-5.4512,-5.4511,0,-5.4228,-5.4183,-5.42,-5.4205,-5.422,-5.4219,-5.421,-5.4234,-5.4122,-5.4147,-5.418,-5.4191,-5.4215,-5.4243,-5.4249,-5.4227,-5.4137,-5.412,-5.4149,-5.4185,-5.4217,-5.4207,-5.3759,-5.4113,-5.4109,-5.4107,-5.4105,-5.4103,-5.3887,-5.3951,-5.3887,-5.3907,-5.3888,-5.3922,-5.3932,-5.3827,-5.3843,-5.3818,-5.3871,-5.3895,-5.3909,-5.3973,-5.3916,-5.3934,-5.3892,-5.4033,-5.3895,-5.3925,-5.3902,-5.3901,-5.391,-5.4065,-5.407,-5.4074,-5.4077,0,-5.3701,-5.3616,-5.3699,-5.3628,-5.3613,-5.3687,-5.3628,-5.3676,-5.3619,-5.3679,-5.3687,-5.3601,-5.3636,-5.3553,-5.3577,-5.3534,-5.3665,-5.3619,-5.3674,-5.3663,-5.3786,-5.3778,-5.4186,-5.4236,-5.3825,-5.3829,-5.3832,0,-5.3379,-5.3467,-5.3336,-5.3389,-5.3484,-5.3374,-5.3472,-5.3433,-5.3404,-5.3449,-5.3329,-5.3375,-5.326,-5.3296,-5.3232,-5.3322,-5.3325,-5.33,-5.3283,-5.3314,-5.3318,-5.3327,-5.3312,-5.3234,-5.3232,-5.323,-5.3228,0,-5.3102,-5.3131,-5.3215,-5.3208,-5.3142,-5.3185,-5.316,-5.3125,-5.3137,-5.3138,-5.3145,-5.3154,-5.3162,-5.3173,-5.3091,-5.3001,-5.3198,-5.3056,-5.3173,-5.3176,-5.3225,-5.3224,-5.3601,-5.3226,-5.3225,-5.3225,-5.3224,0,-5.283,-5.2828,-5.296,-5.2903,-5.2915,-5.297,-5.2971,-5.2997,-5.2971,-5.2932,-5.2932,-5.2843,-5.291,-5.2777,-5.287,-5.2777,-5.2792,-5.2771,-5.2778,-5.2784,-5.264,-5.2871,-5.3232,-5.327,-5.2785,-5.2781,-5.2778,0,-5.2539,-5.2647,-5.2552,-5.268,-5.2719,-5.258,-5.2639,-5.2617,-5.257,-5.2599,-5.2547,-5.2581,-5.2463,-5.2463,-5.2519,-5.2469,-5.2591,-5.2449,-5.2503,-5.2506,-5.252,-5.2849,-5.2927,-5.316,-5.2729,-5.2734,-5.2738,0,-5.2302,-5.2216,-5.2245,-5.2234,-5.2183,-5.2214,-5.2281,-5.2288,-5.2313,-5.2299,-5.2357,-5.2399,-5.2314,-5.2313,-5.2241,-5.2305,-5.2506,-5.2205,-5.2203,-5.2268,-5.2695,-5.2769,-5.2809,-5.2444,-5.245,-5.2454,-5.27,0,-5.1922,-5.1962,-5.2035,-5.2011,-5.202,-5.2093,-5.2,-5.2022,-5.1951,-5.1899,-5.1979,-5.1938,-5.1949,-5.1967,-5.1899,-5.2067,-5.2028,-5.1936,-5.1805,-5.2019,-5.2099,-5.213,-5.1694,-5.169,-5.1686,-5.1683,0,0,-5.1668,-5.1723,-5.1615,-5.1673,-5.1675,-5.1528,-5.1616,-5.16,-5.1574,-5.1581,-5.1505,-5.1561,-5.1532,-5.164,-5.1699,-5.1702,-5.1726,-5.1653,-5.1916,-5.1943,-5.1967,-5.2053,-5.2087,-5.1676,-5.1675,-5.1674,-5.1673,0,-5.151,-5.1475,-5.1559,-5.1537,-5.1501,-5.1439,-5.146,-5.1399,-5.137,-5.1444,-5.1326,-5.1363,-5.1409,-5.1395,-5.1395,-5.1636,-5.1548,-5.1645,-5.1808,-5.1881,-5.1913,-5.194,-5.2032,-5.2065,-5.1663,-5.1664,-5.1664,0,-5.1264,-5.1217,-5.1246,-5.1237,-5.1212,-5.1255,-5.1091,-5.1142,-5.1173,-5.1013,-5.109,-5.1056,-5.1028,-5.114,-5.1186,-5.1119,-5.1393,-5.1288,-5.1309,-5.1314,-5.1381,-5.1418,-5.1452,-5.1011,-5.1009,-5.1007,0,0,-5.1142,-5.1176,-5.1092,-5.1196,-5.1188,-5.1098,-5.1109,-5.1039,-5.1014,-5.1005,-5.0958,-5.0941,-5.0967,-5.0987,-5.1006,-5.114,-5.1129,-5.1211,-5.1242,-5.1267,-5.1287,-5.136,-5.1397,-5.1,-5.1,-5.0999,0,0,-5.1083,-5.0989,-5.0919,-5.1027,-5.1006,-5.0932,-5.1001,-5.0916,-5.0922,-5.0904,-5.0789,-5.078,-5.0881,-5.0852,-5.0767,-5.0959,-5.0829,-5.0848,-5.0974,-5.1012,-5.1042,-5.1049,-5.0598,0,0,0,0,0,-5.0873,-5.0999,-5.0937,-5.0941,-5.093,-5.0966,-5.0964,-5.0871,-5.0781,-5.0839,-5.0786,-5.0688,-5.0783,-5.0705,-5.0712,-5.081,-5.0907,-5.0924,-5.0939,-5.1133,-5.1173,-5.1207,0,0,0,0,0,0,-5.0873,-5.0878,-5.0934,-5.0867,-5.0863,-5.096,-5.0789,-5.0767,-5.0773,-5.0753,-5.0701,-5.0687,-5.061,-5.0695,-5.0703,-5.0798,-5.0595,-5.0914,-5.0928,-5.094,-5.1147,-5.118,-5.1208,0,0,0,0,0,-5.0873,-5.0877,-5.0883,-5.0864,-5.0861,-5.0767,-5.0784,-5.0764,-5.0767,-5.0685,-5.0667,-5.0695,-5.0615,-5.0615,-5.0699,-5.0797,-5.0589,-5.0592,-5.0923,-5.0934,-5.0943,-5.1163,0,0,0,0,0,0,-5.0873,-5.086,-5.088,-5.0876,-5.0808,-5.0759,-5.0748,-5.0762,-5.0697,-5.068,-5.0673,-5.0659,-5.062,-5.0619,-5.0621,-5.0801,-5.0583,-5.0587,-5.0589,-5.0931,-5.094,-5.0947,0,0,0,0,0,0,-5.0857,-5.0858,-5.0878,-5.0812,-5.08,-5.0753,-5.0743,-5.08,-5.0698,-5.0688,-5.0674,-5.0668,-5.062,-5.0623,-5.0623,-5.0716,-5.0579,-5.0583,-5.0585,-5.0586,-5.0938,-5.0945,0,0,0,0,0,0,-5.0856,-5.0856,-5.0813,-5.0803,-5.0792,-5.0737,-5.0802,-5.0797,-5.0639,-5.0694,-5.0622,-5.0614,-5.0627,-5.0624,-5.0626,-5.072,-5.0717,-5.058,-5.0582,-5.0583,-5.0584,0,0,0,0,0,0,0,-5.0855,-5.0875,-5.0905,-5.0796,-5.0785,-5.0837,-5.0836,-5.0834,-5.0637,-5.063,-5.0624,-5.0618,-5.056,-5.0564,-5.0568,-5.0723,0,0,-5.0579,-5.0581,0,0,0,0,0,0,0,0,-5.0873,-5.0875,-5.0905,-5.0904,-5.0903,-5.0837,-5.0836,-5.0835,-5.0636,-5.0631,-5.0625,-5.062,-5.0561,-5.0564,-5.0567,0,0,0,0,0,0,0,0,0,0,0,0,0,0,0,-5.0905,-5.0904,0,-5.0836,-5.0836,-5.0835,-5.0635,-5.0631,-5.0626,-5.0622,-5.0562,-5.0565,-5.0567,0,0,0,0,0,0,0,0,0,0,0,0,0,0,0,0,0,0,0,0,0,0,0,0,0,0,0,0,0,0,0,0,0,0,0,0,0,0,0,0,0,0,0,0,0,0,0,0,0,0,0,0,0,0,0,0,0,0,0,0,0,0,0,0,0,0,0,0,0]}],[{"header":{"parameterUnit":"kt","parameterCategory":2,"dx":1,"dy":1,"la1":30.253999710083008,"la2":30.299108505249023,"lo1":-89.0895004272461,"lo2":-89.04439544677734,"nx":28,"ny":28,"refTime":"2022-10-31T21:00:00:Z","depth":0,"parameterNumber":2,"parameterNumberName":"V-component_of_WINDS"},"data":[-4.327,-4.3331,-4.3314,-4.3376,-4.337,-4.3409,-4.3418,-4.3426,-4.3428,-4.3472,-4.3494,-4.3482,-4.3476,-4.3497,-4.352,-4.3513,-4.3525,-4.356,-4.3547,-4.3406,-4.3386,-4.3366,-4.3351,-4.3562,-4.3562,-4.3695,-4.3697,-4.3698,-4.317,-4.3166,-4.3194,-4.3208,-4.3231,-4.3187,-4.3195,-4.3217,-4.3253,-4.3255,-4.3275,-4.3312,-4.3338,-4.332,-4.3342,-4.337,-4.335,-4.3377,-4.3375,-4.3375,-4.3224,-4.3209,-4.3393,-4.3393,-4.3393,-4.3392,-4.3392,-4.3392,-4.2985,-4.3022,-4.3021,-4.305,-4.3052,-4.3061,-4.3093,-4.3077,-4.3103,-4.3124,-4.3097,-4.3136,-4.3135,-4.3151,-4.3152,-4.3182,-4.3148,-4.3172,-4.3178,-4.3185,-4.3197,-4.301,-4.3184,-4.3184,-4.3183,-4.3182,-4.3182,0,-4.2844,-4.2827,-4.2851,-4.2871,-4.2891,-4.2904,-4.2912,-4.2931,-4.2887,-4.291,-4.2941,-4.2956,-4.2985,-4.3012,-4.3028,-4.3023,-4.2979,-4.2972,-4.2989,-4.3004,-4.3016,-4.3012,-4.2768,-4.2967,-4.2965,-4.2964,-4.2963,-4.2962,-4.2657,-4.2701,-4.269,-4.271,-4.271,-4.2742,-4.2757,-4.2714,-4.2732,-4.2735,-4.277,-4.2796,-4.2815,-4.2867,-4.2847,-4.2868,-4.2847,-4.2926,-4.285,-4.2863,-4.285,-4.2849,-4.2854,-4.2942,-4.2944,-4.2947,-4.2948,0,-4.2553,-4.2523,-4.2586,-4.257,-4.2567,-4.2616,-4.2602,-4.2636,-4.2616,-4.266,-4.2668,-4.2636,-4.2667,-4.2634,-4.2662,-4.2643,-4.2724,-4.2702,-4.2725,-4.2719,-4.2787,-4.2782,-4.301,-4.3038,-4.2817,-4.2819,-4.2821,0,-4.2382,-4.2442,-4.2394,-4.2432,-4.2497,-4.2452,-4.2517,-4.2506,-4.2503,-4.2538,-4.2482,-4.2516,-4.2467,-4.2495,-4.2468,-4.2527,-4.2532,-4.2522,-4.2514,-4.2528,-4.253,-4.2538,-4.2528,-4.2492,-4.2491,-4.249,-4.2489,0,-4.2225,-4.2268,-4.233,-4.2334,-4.2322,-4.2352,-4.2348,-4.2344,-4.2359,-4.2373,-4.2382,-4.24,-4.2411,-4.2426,-4.2391,-4.2341,-4.2462,-4.2386,-4.2452,-4.2453,-4.2482,-4.2481,-4.269,-4.2488,-4.2488,-4.2487,-4.2487,0,-4.2082,-4.2097,-4.2191,-4.2179,-4.2192,-4.2232,-4.2248,-4.2274,-4.2274,-4.2259,-4.2269,-4.2228,-4.2275,-4.2203,-4.2269,-4.2214,-4.2228,-4.2222,-4.2226,-4.2229,-4.215,-4.2275,-4.2476,-4.2497,-4.2231,-4.2229,-4.2227,0,-4.1911,-4.1997,-4.1959,-4.2048,-4.2083,-4.2018,-4.2061,-4.2062,-4.2046,-4.2073,-4.2054,-4.2084,-4.2023,-4.2028,-4.2064,-4.2047,-4.2118,-4.2036,-4.2076,-4.2078,-4.208,-4.2265,-4.2304,-4.2435,-4.2199,-4.2202,-4.2204,0,-4.1775,-4.176,-4.1778,-4.1782,-4.1776,-4.1804,-4.1854,-4.1874,-4.1894,-4.1901,-4.1942,-4.1982,-4.1938,-4.1946,-4.1914,-4.1954,-4.2068,-4.1901,-4.1901,-4.1934,-4.2182,-4.2219,-4.2241,-4.2038,-4.2041,-4.2044,-4.2182,0,-4.157,-4.1607,-4.1656,-4.1665,-4.1681,-4.1734,-4.1698,-4.172,-4.1687,-4.1669,-4.1727,-4.1718,-4.1738,-4.1753,-4.1721,-4.1824,-4.1801,-4.1754,-4.1682,-4.1802,-4.1847,-4.1865,-4.1618,-4.1616,-4.1614,-4.1612,0,0,-4.1414,-4.1468,-4.1424,-4.147,-4.1481,-4.1413,-4.1473,-4.1475,-4.1482,-4.1491,-4.145,-4.1507,-4.1502,-4.1577,-4.1611,-4.1619,-4.1634,-4.1593,-4.1745,-4.176,-4.1773,-4.1822,-4.1841,-4.1608,-4.1608,-4.1607,-4.1606,0,-4.1332,-4.1328,-4.1388,-4.1389,-4.1388,-4.1365,-4.138,-4.1367,-4.1357,-4.1413,-4.1356,-4.1386,-4.1432,-4.1435,-4.1442,-4.1583,-4.1538,-4.1591,-4.168,-4.1726,-4.1744,-4.1759,-4.1811,-4.183,-4.1602,-4.1602,-4.1602,0,-4.1192,-4.1183,-4.1208,-4.1229,-4.1227,-4.1264,-4.118,-4.1221,-4.1248,-4.117,-4.1227,-4.1217,-4.1216,-4.1291,-4.1323,-4.1287,-4.1453,-4.1393,-4.1404,-4.1408,-4.145,-4.1472,-4.149,-4.1242,-4.1241,-4.124,0,0,-4.1126,-4.1161,-4.1136,-4.1208,-4.1212,-4.1178,-4.1193,-4.1163,-4.1164,-4.1164,-4.115,-4.1153,-4.1179,-4.1197,-4.122,-4.1307,-4.1304,-4.135,-4.1367,-4.1381,-4.1392,-4.1439,-4.146,-4.1236,-4.1236,-4.1236,0,0,-4.1094,-4.1069,-4.1037,-4.1115,-4.1118,-4.1099,-4.1144,-4.1103,-4.112,-4.111,-4.1059,-4.1058,-4.1126,-4.1119,-4.1068,-4.1194,-4.1123,-4.1134,-4.1197,-4.1217,-4.1234,-4.1235,-4.098,0,0,0,0,0,-4.0991,-4.1072,-4.1043,-4.1051,-4.1076,-4.1115,-4.1118,-4.1079,-4.103,-4.1067,-4.1049,-4.0999,-4.1081,-4.1035,-4.1043,-4.11,-4.1183,-4.1192,-4.1201,-4.1301,-4.1324,-4.1342,0,0,0,0,0,0,-4.0994,-4.1003,-4.1041,-4.1025,-4.1031,-4.1112,-4.1021,-4.1012,-4.1025,-4.1015,-4.1004,-4.0999,-4.0965,-4.1028,-4.1036,-4.1091,-4.0977,-4.1186,-4.1194,-4.1202,-4.1309,-4.1327,-4.1343,0,0,0,0,0,-4.0996,-4.1003,-4.1055,-4.1024,-4.1029,-4.0995,-4.1017,-4.1009,-4.1019,-4.0991,-4.0984,-4.0988,-4.0968,-4.0972,-4.1032,-4.1089,-4.0971,-4.0974,-4.1192,-4.1198,-4.1204,-4.1318,0,0,0,0,0,0,-4.0997,-4.0996,-4.1055,-4.1055,-4.099,-4.099,-4.0989,-4.1007,-4.0992,-4.0987,-4.0971,-4.0963,-4.0971,-4.0973,-4.0977,-4.109,-4.0967,-4.097,-4.0972,-4.1196,-4.1201,-4.1206,0,0,0,0,0,0,-4.0992,-4.0997,-4.1055,-4.1015,-4.101,-4.0985,-4.0984,-4.1029,-4.0993,-4.0974,-4.0967,-4.0968,-4.0965,-4.0975,-4.0977,-4.1049,-4.0963,-4.0966,-4.0968,-4.0969,-4.1201,-4.1204,0,0,0,0,0,0,-4.0993,-4.0997,-4.1015,-4.1011,-4.1006,-4.1002,-4.1024,-4.1053,-4.096,-4.0976,-4.095,-4.0946,-4.0969,-4.097,-4.0978,-4.1049,-4.1049,-4.0963,-4.0965,-4.0967,-4.0968,0,0,0,0,0,0,0,-4.0994,-4.0976,-4.1056,-4.1008,-4.1003,-4.1055,-4.1055,-4.1055,-4.0959,-4.0955,-4.0951,-4.0947,-4.0946,-4.0949,-4.0952,-4.1049,0,0,-4.0963,-4.0964,0,0,0,0,0,0,0,0,-4.0973,-4.0975,-4.1056,-4.1056,-4.1056,-4.1055,-4.1055,-4.1055,-4.0958,-4.0955,-4.0952,-4.0949,-4.0946,-4.0949,-4.0952,0,0,0,0,0,0,0,0,0,0,0,0,0,0,0,-4.1056,-4.1056,0,-4.1055,-4.1055,-4.1055,-4.0957,-4.0955,-4.0952,-4.095,-4.0947,-4.0949,-4.0952,0,0,0,0,0,0,0,0,0,0,0,0,0,0,0,0,0,0,0,0,0,0,0,0,0,0,0,0,0,0,0,0,0,0,0,0,0,0,0,0,0,0,0,0,0,0,0,0,0,0,0,0,0,0,0,0,0,0,0,0,0,0,0,0,0,0,0,0,0]}]]]